AB9HP Weather Reports


Display with metric or nautical units.
time (UTC)temp
F
wind
direction
speed
MPH
gust
MPH
rain 1hr
in
rain 24hr
in
rain mn
in
humidity
%
barometer
mb
20260903213021 94 266 5.0 16.0 0.00 0.00 0.00 59 1012.3
20260903211510 95 249 2.0 13.0 0.00 0.00 0.00 59 1012.3
20260903210007 94 232 4.0 15.0 0.00 0.00 0.00 59 1012.4
20260903204510 95 248 6.0 16.0 0.00 0.00 0.00 58 1012.4
20260903203002 94 169 7.0 14.0 0.00 0.00 0.00 58 1012.3
20260903201600 94 196 6.0 12.0 0.00 0.00 0.00 59 1012.1
20260903200106 94 230 8.0 16.0 0.00 0.00 0.00 59 1012.2
20260903194557 94 214 6.0 14.0 0.00 0.00 0.00 59 1012.6
20260903193053 93 224 5.0 13.0 0.00 0.00 0.00 62 1012.9
20260903191544 94 248 4.0 12.0 0.00 0.00 0.00 61 1013.4
20260903190036 93 274 4.0 14.0 0.00 0.00 0.00 63 1013.8
20260903184534 93 256 5.0 12.0 0.00 0.00 0.00 62 1013.9
20260903183029 93 252 3.0 11.0 0.00 0.00 0.00 63 1014.1
20260903181525 93 291 7.0 15.0 0.00 0.00 0.00 61 1014.0
20260903180022 92 149 5.0 15.0 0.00 0.00 0.00 64 1014.0
20260903174521 91 245 5.0 10.0 0.00 0.00 0.00 65 1014.0
20260903173024 91 204 5.0 12.0 0.00 0.00 0.00 66 1013.9
20260903171515 91 219 5.0 11.0 0.00 0.00 0.00 65 1014.1
20260903170009 91 221 5.0 13.0 0.00 0.00 0.00 66 1014.3
20260903164505 90 176 5.0 13.0 0.00 0.00 0.00 68 1014.3
20260903163004 90 205 6.0 10.0 0.00 0.00 0.00 66 1014.7
20260903161558 89 174 4.0 13.0 0.00 0.00 0.00 68 1014.8
20260903160056 89 262 5.0 11.0 0.00 0.00 0.00 68 1014.9
20260903154551 88 198 5.0 11.0 0.00 0.00 0.00 69 1014.9
20260903153046 87 238 7.0 11.0 0.00 0.00 0.00 70 1014.9
20260903151543 87 262 4.0 13.0 0.00 0.00 0.00 71 1014.9
20260903150050 86 228 5.0 13.0 0.00 0.00 0.00 71 1014.8
20260903144541 86 164 4.0 9.0 0.00 0.00 0.00 73 1014.8
20260903143040 85 217 5.0 11.0 0.00 0.00 0.00 74 1014.8
20260903141534 84 238 5.0 10.0 0.00 0.00 0.00 73 1014.7
20260903140024 84 223 2.0 11.0 0.00 0.00 0.00 75 1014.8
20260903134536 83 227 8.0 12.0 0.00 0.00 0.00 76 1014.7
20260903133017 82 276 3.0 10.0 0.00 0.00 0.00 77 1014.9
20260903131512 81 205 3.0 6.0 0.00 0.00 0.00 78 1015.1
20260903130011 80 210 3.0 8.0 0.00 0.00 0.00 79 1015.1
20260903124507 79 245 5.0 11.0 0.00 0.00 0.00 80 1015.2
20260903123012 79 152 2.0 5.0 0.00 0.00 0.00 81 1015.2
20260903121502 78 203 3.0 7.0 0.00 0.00 0.00 82 1015.3
20260903120106 78 215 3.0 7.0 0.00 0.00 0.00 83 1015.2
20260903114558 78 224 2.0 6.0 0.00 0.00 0.00 83 1015.3
20260903113055 77 238 1.0 4.0 0.00 0.00 0.00 84 1015.1
20260903111551 77 236 2.0 4.0 0.00 0.00 0.00 83 1015.0
20260903110048 77 214 0.0 4.0 0.00 0.00 0.00 83 1014.9
20260903104550 77 252 1.0 4.0 0.00 0.00 0.00 84 1014.7
20260903103043 77 203 1.0 4.0 0.00 0.00 0.00 84 1014.6
20260903101541 78 231 0.0 4.0 0.00 0.00 0.00 83 1014.7
20260903100038 78 223 2.0 5.0 0.00 0.00 0.00 83 1014.6
20260903094540 78 248 2.0 4.0 0.00 0.00 0.00 83 1014.6
20260903093048 78 247 0.0 4.0 0.00 0.00 0.00 83 1014.5
20260903091530 79 231 1.0 6.0 0.00 0.00 0.00 83 1014.5
20260903090026 79 227 2.0 8.0 0.00 0.00 0.00 82 1014.4
20260903084522 79 232 3.0 10.0 0.00 0.00 0.00 82 1014.2
20260903083020 79 215 1.0 8.0 0.00 0.00 0.00 82 1014.1
20260903081536 79 233 2.0 7.0 0.00 0.00 0.00 82 1014.2
20260903080016 79 217 2.0 8.0 0.00 0.00 0.00 82 1014.1
20260903074514 79 225 3.0 8.0 0.00 0.00 0.00 82 1014.1
20260903073015 79 188 3.0 7.0 0.00 0.00 0.00 82 1014.0
20260903071513 79 228 5.0 9.0 0.00 0.00 0.00 82 1013.9
20260903070008 79 236 4.0 9.0 0.00 0.00 0.00 83 1014.0
20260903064506 79 208 2.0 10.0 0.00 0.00 0.00 83 1014.1
20260903063004 79 230 4.0 9.0 0.00 0.00 0.00 83 1014.1
20260903061503 79 217 2.0 7.0 0.00 0.00 0.00 83 1014.2
20260903060059 79 223 2.0 6.0 0.00 0.00 0.00 83 1014.2
20260903054555 79 199 1.0 6.0 0.00 0.00 0.00 83 1014.2
20260903053052 80 211 2.0 6.0 0.00 0.00 0.00 83 1014.2
20260903051552 80 205 2.0 5.0 0.00 0.00 0.00 83 1014.1
20260903050047 80 196 1.0 6.0 0.00 0.00 0.00 82 1013.9
20260903044546 80 226 0.0 5.0 0.00 0.00 0.00 82 1014.0
20260903043041 81 201 2.0 5.0 0.00 0.00 0.00 81 1013.7
20260903041536 81 207 3.0 7.0 0.00 0.00 0.00 81 1013.7
20260903040033 81 210 3.0 7.0 0.00 0.00 0.00 81 1013.7
20260903034530 81 183 2.0 5.0 0.00 0.00 0.00 81 1013.8
20260903033028 82 181 2.0 7.0 0.00 0.00 0.00 80 1013.9
20260903031532 83 229 1.0 6.0 0.00 0.00 0.00 79 1014.0
20260903030024 83 217 2.0 7.0 0.00 0.00 0.00 79 1014.0
20260903024522 83 199 1.0 4.0 0.00 0.00 0.00 80 1014.2
20260903023026 83 211 0.0 4.0 0.00 0.00 0.00 80 1014.2
20260903021536 83 225 1.0 6.0 0.00 0.00 0.00 79 1014.1
20260903020018 84 205 1.0 6.0 0.00 0.00 0.00 79 1014.1
20260903014513 84 195 3.0 7.0 0.00 0.00 0.00 78 1013.9
20260903013014 84 178 3.0 7.0 0.00 0.00 0.00 77 1013.8
20260903011509 85 203 3.0 7.0 0.00 0.00 0.00 76 1013.7
20260903010008 86 210 1.0 4.0 0.00 0.00 0.00 76 1013.7
20260903004506 86 219 1.0 7.0 0.00 0.00 0.00 76 1013.5
20260903003005 87 225 3.0 7.0 0.00 0.00 0.00 75 1013.6
20260903001504 88 224 1.0 6.0 0.00 0.00 0.00 74 1013.5
20260903000100 88 223 3.0 8.0 0.00 0.00 0.00 73 1013.6
20260902234600 89 234 1.0 7.0 0.00 0.00 0.00 71 1013.6
20260902233054 90 233 2.0 7.0 0.00 0.00 0.00 69 1013.6
20260902231559 91 229 2.0 8.0 0.00 0.00 0.00 67 1013.6
20260902230054 92 214 1.0 7.0 0.00 0.00 0.00 67 1013.5
20260902224549 92 230 5.0 11.0 0.00 0.00 0.00 65 1013.5
20260902223046 93 256 2.0 11.0 0.00 0.00 0.00 64 1013.6
20260902221553 93 204 5.0 12.0 0.00 0.00 0.00 63 1013.7
20260902220043 94 210 4.0 10.0 0.00 0.00 0.00 62 1013.6
20260902214543 94 243 4.0 11.0 0.00 0.00 0.00 63 1013.5